[[{"header":{"parameterUnit":"m.s-1","parameterCategory":1,"la1":30.2991,"la2":30.254,"lo1":-89.0895,"lo2":-89.0444,"dy":0.0017,"dx":0.0017,"nx":28,"ny":28,"refTime":"2023-10-05T09:00:00:Z","depth":0,"parameterNumber":2,"parameterNumberName":"U-component_of_WINDS"},"data":[0,0,0,0,0,0,0,0,0,0,0,0,0,0,0,0,0,0,0,0,0,0,0,0,0,0,0,0,0,0,0,0,0,0,0,0,0,0,0,0,0,0,0,0,0,0,0,0,0,0,0,0,0,0,0,0,0,0,0.6518,0.6518,0,0.6529,0.6529,0.6529,0.6543,0.6544,0.6544,0.6544,0.6553,0.6553,0.6553,0,0,0,0,0,0,0,0,0,0,0,0,0,0.6509,0.6509,0.6518,0.6518,0.6518,0.6529,0.6529,0.6529,0.6543,0.6544,0.6544,0.6544,0.6553,0.6553,0.6553,0,0,0,0,0,0,0,0,0,0,0,0,0,0.6515,0.6509,0.6518,0.6527,0.6528,0.6529,0.6529,0.6529,0.6543,0.6544,0.6544,0.6544,0.6553,0.6553,0.6553,0.6546,0,0,0.6553,0.6553,0,0,0,0,0,0,0,0,0.6515,0.6516,0.6525,0.6526,0.6527,0.6535,0.6529,0.6535,0.6543,0.6537,0.6544,0.6544,0.6547,0.6547,0.6548,0.6546,0.6547,0.6553,0.6553,0.6553,0.6553,0,0,0,0,0,0,0,0.6515,0.6515,0.6522,0.6525,0.6527,0.653,0.6531,0.653,0.654,0.6538,0.6539,0.654,0.6547,0.6548,0.6549,0.6547,0.6553,0.6553,0.6553,0.6553,0.6541,0.6541,0,0,0,0,0,0,0.6513,0.6515,0.6522,0.6523,0.6522,0.653,0.6531,0.6532,0.654,0.6541,0.654,0.6541,0.6548,0.6549,0.6549,0.6542,0.6553,0.6553,0.6553,0.6541,0.6541,0.6541,0,0,0,0,0,0,0.6513,0.6514,0.6522,0.6519,0.652,0.653,0.6531,0.6532,0.6533,0.6541,0.6543,0.6539,0.6548,0.6549,0.6547,0.6542,0.6553,0.6553,0.6542,0.6541,0.6541,0.6527,0,0,0,0,0,0,0.6512,0.6513,0.6511,0.6519,0.6521,0.652,0.653,0.6532,0.6534,0.6535,0.6541,0.6543,0.6549,0.6547,0.6547,0.6543,0.6553,0.6542,0.6542,0.6541,0.6528,0.6526,0.6525,0,0,0,0,0,0.6512,0.6506,0.6511,0.6511,0.6518,0.6519,0.652,0.6528,0.6533,0.6531,0.6536,0.6542,0.6543,0.6547,0.6547,0.6542,0.6543,0.6542,0.6541,0.6529,0.6527,0.6525,0,0,0,0,0,0,0.6496,0.6507,0.6512,0.6509,0.6513,0.6522,0.6519,0.6525,0.6527,0.6528,0.6538,0.6539,0.6536,0.6539,0.6543,0.6537,0.6544,0.6543,0.6535,0.6533,0.6531,0.653,0.6553,0,0,0,0,0,0.6492,0.6493,0.6502,0.6498,0.65,0.6509,0.651,0.6516,0.6521,0.6522,0.6527,0.6531,0.6532,0.6533,0.6534,0.6529,0.6531,0.6526,0.6525,0.6523,0.6522,0.6521,0.6519,0.6538,0.6538,0.6538,0,0,0.6483,0.649,0.6489,0.6495,0.6499,0.65,0.651,0.651,0.6511,0.6522,0.6521,0.6525,0.653,0.6527,0.6525,0.6529,0.6518,0.6522,0.6521,0.6521,0.652,0.6518,0.6516,0.6538,0.6538,0.6538,0,0,0.6468,0.6473,0.6471,0.6475,0.6482,0.6488,0.6487,0.6496,0.6499,0.6498,0.6507,0.6508,0.6509,0.6513,0.6515,0.6503,0.6509,0.6504,0.6495,0.6493,0.6491,0.649,0.6486,0.6485,0.6503,0.6503,0.6503,0,0.6456,0.6458,0.6468,0.6468,0.647,0.6482,0.648,0.6483,0.649,0.6491,0.6496,0.6499,0.6503,0.6501,0.6499,0.65,0.65,0.6502,0.6491,0.649,0.6489,0.6485,0.6484,0.6502,0.6502,0.6502,0.6502,0,0.6444,0.6445,0.6442,0.6449,0.6451,0.645,0.646,0.6461,0.6467,0.6473,0.6473,0.6479,0.6482,0.6482,0.6487,0.6481,0.6484,0.6489,0.6497,0.6486,0.6483,0.6481,0.6501,0.6501,0.6501,0.6502,0,0,0.6416,0.6431,0.643,0.6434,0.6443,0.6444,0.6443,0.6448,0.6449,0.6453,0.6453,0.6455,0.6461,0.6464,0.647,0.6469,0.646,0.6475,0.6475,0.6472,0.6454,0.6449,0.6447,0.6464,0.6464,0.6464,0.6453,0,0.6403,0.6403,0.6413,0.641,0.6412,0.6424,0.6424,0.643,0.6436,0.6438,0.6444,0.6446,0.6454,0.6455,0.6455,0.6461,0.6456,0.6462,0.6464,0.6464,0.6462,0.6445,0.644,0.6429,0.6452,0.6452,0.6452,0,0.6386,0.6391,0.6389,0.64,0.6401,0.64,0.6406,0.6408,0.6415,0.6419,0.6423,0.6431,0.6431,0.6439,0.644,0.6444,0.6445,0.6449,0.6449,0.6448,0.6456,0.6444,0.6426,0.6424,0.645,0.645,0.645,0,0.6366,0.6372,0.6372,0.6375,0.6388,0.6387,0.6392,0.64,0.6402,0.6407,0.6409,0.6414,0.6416,0.642,0.6429,0.6433,0.6429,0.6437,0.6432,0.6432,0.643,0.6429,0.6411,0.6432,0.6432,0.6432,0.6432,0,0.6349,0.6347,0.6364,0.6364,0.6362,0.6374,0.6373,0.6379,0.6386,0.6387,0.6398,0.6399,0.6411,0.6414,0.6421,0.6421,0.6422,0.6425,0.6427,0.6424,0.6424,0.6424,0.6425,0.6431,0.6431,0.6432,0.6432,0,0.6326,0.6337,0.6338,0.635,0.6354,0.6352,0.6363,0.6363,0.6371,0.6372,0.6373,0.6385,0.6389,0.6399,0.6404,0.6409,0.6407,0.6411,0.6405,0.6406,0.64,0.6401,0.6381,0.638,0.6402,0.6402,0.6401,0,0.6314,0.6313,0.6326,0.6328,0.6333,0.6337,0.634,0.6352,0.6355,0.6364,0.6363,0.6368,0.6373,0.6378,0.6387,0.6391,0.6395,0.6388,0.6396,0.6393,0.6395,0.6394,0.6395,0.6386,0.6386,0.6385,0.6385,0,0.6291,0.6298,0.6302,0.6309,0.6313,0.6318,0.6324,0.6326,0.634,0.6342,0.6347,0.635,0.6357,0.6362,0.6369,0.6374,0.6382,0.6383,0.6382,0.6378,0.6375,0.6377,0.64,0.6383,0.6383,0.6383,0.6384,0.6384,0.6273,0.6274,0.6283,0.6288,0.6295,0.6301,0.6302,0.6311,0.6315,0.6322,0.633,0.6333,0.6342,0.6352,0.6357,0.636,0.6364,0.6363,0.6362,0.6362,0.636,0.6376,0.6361,0.6361,0.6361,0.6361,0.6361,0,0.6251,0.6259,0.6263,0.6272,0.6277,0.6286,0.6294,0.6296,0.63,0.6307,0.6312,0.6318,0.6323,0.6333,0.6339,0.634,0.6344,0.6341,0.6341,0.6342,0.6356,0.6356,0.6338,0.6338,0.6338,0.6338,0.6338,0.6338,0.624,0.6241,0.6249,0.6254,0.6261,0.6266,0.6269,0.6275,0.6282,0.6288,0.6293,0.63,0.6309,0.6316,0.6321,0.6324,0.6326,0.6322,0.6326,0.6338,0.6341,0.6343,0.6343,0.6322,0.6322,0.6311,0.6311,0.6311]},{"header":{"parameterUnit":"m.s-1","parameterCategory":1,"la1":30.2991,"la2":30.254,"lo1":-89.0895,"lo2":-89.0444,"dy":0.0017,"dx":0.0017,"nx":28,"ny":28,"refTime":"2023-10-05T09:00:00:Z","depth":0,"parameterNumber":3,"parameterNumberName":"V-component_of_WINDS"},"data":[0,0,0,0,0,0,0,0,0,0,0,0,0,0,0,0,0,0,0,0,0,0,0,0,0,0,0,0,0,0,0,0,0,0,0,0,0,0,0,0,0,0,0,0,0,0,0,0,0,0,0,0,0,0,0,0,0,0,-6.9895,-6.9895,0,-6.9887,-6.9887,-6.9887,-6.9771,-6.9768,-6.9765,-6.9762,-6.9756,-6.9758,-6.9761,0,0,0,0,0,0,0,0,0,0,0,0,0,-6.9808,-6.9811,-6.9895,-6.9895,-6.9895,-6.9887,-6.9887,-6.9887,-6.9771,-6.9768,-6.9764,-6.9761,-6.9755,-6.9758,-6.9761,0,0,0,0,0,0,0,0,0,0,0,0,0,-6.9828,-6.9811,-6.9895,-6.9836,-6.9831,-6.9888,-6.9887,-6.9887,-6.9772,-6.9768,-6.9763,-6.9759,-6.9754,-6.9758,-6.9761,-6.9875,0,0,-6.9773,-6.9775,0,0,0,0,0,0,0,0,-6.9827,-6.9831,-6.9845,-6.984,-6.9834,-6.9825,-6.9854,-6.9883,-6.9773,-6.9794,-6.9762,-6.9757,-6.9783,-6.9784,-6.9792,-6.9874,-6.9874,-6.9774,-6.9776,-6.9778,-6.9779,0,0,0,0,0,0,0,-6.9826,-6.9831,-6.9892,-6.9845,-6.9839,-6.981,-6.9808,-6.9859,-6.9814,-6.9792,-6.9784,-6.9784,-6.9779,-6.9789,-6.9791,-6.9874,-6.9773,-6.9777,-6.9779,-6.9781,-7.0046,-7.0051,0,0,0,0,0,0,-6.9833,-6.9831,-6.9892,-6.9892,-6.982,-6.9815,-6.9813,-6.9833,-6.9813,-6.9805,-6.9788,-6.9779,-6.9784,-6.9787,-6.9791,-6.9919,-6.9778,-6.9781,-6.9783,-7.0041,-7.0047,-7.0052,0,0,0,0,0,0,-6.9831,-6.9839,-6.9892,-6.9859,-6.9863,-6.9821,-6.9845,-6.9835,-6.9845,-6.981,-6.9801,-6.9807,-6.9781,-6.9785,-6.9854,-6.9918,-6.9783,-6.9787,-7.0036,-7.0043,-7.005,-7.018,0,0,0,0,0,0,-6.9829,-6.9839,-6.9882,-6.9861,-6.9866,-6.9956,-6.9849,-6.9838,-6.9852,-6.9839,-6.9825,-6.9818,-6.9778,-6.9849,-6.9858,-6.9921,-6.979,-7.003,-7.0039,-7.0047,-7.017,-7.0191,-7.0209,0,0,0,0,0,-6.9827,-6.992,-6.9885,-6.9893,-6.9918,-6.996,-6.9963,-6.9914,-6.9857,-6.9899,-6.9877,-6.9818,-6.991,-6.9857,-6.9866,-6.9931,-7.0026,-7.0037,-7.0047,-7.0161,-7.0187,-7.0208,0,0,0,0,0,0,-6.9951,-6.9916,-6.9877,-6.9966,-6.9967,-6.994,-6.9992,-6.9943,-6.9961,-6.9949,-6.9888,-6.9886,-6.9964,-6.9955,-6.9896,-7.0038,-6.9957,-6.997,-7.0041,-7.0065,-7.0084,-7.0084,-6.9793,0,0,0,0,0,-6.9989,-7.0025,-6.9993,-7.0075,-7.0077,-7.0035,-7.0052,-7.0014,-7.0013,-7.0013,-6.9995,-6.9996,-7.0024,-7.0045,-7.0069,-7.0169,-7.0163,-7.0218,-7.0237,-7.0253,-7.0265,-7.0314,-7.0338,-7.0087,-7.0087,-7.0087,0,0,-7.0067,-7.0053,-7.008,-7.01,-7.0096,-7.0135,-7.0036,-7.0082,-7.011,-7.002,-7.0082,-7.007,-7.0067,-7.0151,-7.0187,-7.0146,-7.0333,-7.0267,-7.028,-7.0282,-7.0327,-7.0351,-7.0372,-7.0094,-7.0093,-7.0092,0,0,-7.0229,-7.0223,-7.0289,-7.0287,-7.0282,-7.0253,-7.0269,-7.025,-7.0237,-7.03,-7.0232,-7.0265,-7.0316,-7.0316,-7.0323,-7.0484,-7.043,-7.0494,-7.0595,-7.0644,-7.0663,-7.068,-7.0736,-7.0756,-7.0506,-7.0506,-7.0507,0,-7.0327,-7.0383,-7.0329,-7.0379,-7.0389,-7.0308,-7.0374,-7.0375,-7.0379,-7.0388,-7.0341,-7.0402,-7.0395,-7.0477,-7.0516,-7.0525,-7.054,-7.0494,-7.0665,-7.0682,-7.0697,-7.0748,-7.077,-7.0514,-7.0513,-7.0512,-7.0512,0,-7.0502,-7.0542,-7.0596,-7.06,-7.0617,-7.0675,-7.0629,-7.0653,-7.0614,-7.059,-7.0654,-7.0642,-7.0662,-7.0679,-7.0642,-7.0755,-7.0729,-7.0676,-7.0592,-7.0729,-7.0776,-7.0796,-7.0525,-7.0522,-7.052,-7.0518,0,0,-7.0742,-7.0714,-7.0735,-7.0735,-7.0723,-7.0753,-7.0807,-7.0825,-7.0845,-7.0851,-7.0894,-7.0939,-7.0888,-7.0896,-7.0858,-7.0902,-7.1027,-7.0842,-7.0841,-7.0874,-7.1149,-7.1187,-7.1211,-7.0993,-7.0996,-7.0999,-7.1148,0,-7.0896,-7.0985,-7.0938,-7.1033,-7.1068,-7.0992,-7.1038,-7.1036,-7.1015,-7.1042,-7.1019,-7.1051,-7.0983,-7.0987,-7.1027,-7.1004,-7.1081,-7.0993,-7.103,-7.1032,-7.1031,-7.1237,-7.1278,-7.1419,-7.1166,-7.117,-7.1172,0,-7.1087,-7.1099,-7.1198,-7.1177,-7.119,-7.1233,-7.1245,-7.1272,-7.1268,-7.1249,-7.1258,-7.121,-7.1261,-7.1181,-7.1249,-7.119,-7.1203,-7.1194,-7.1199,-7.1198,-7.1109,-7.1239,-7.1463,-7.1483,-7.1201,-7.1199,-7.1197,0,-7.1248,-7.129,-7.1353,-7.1356,-7.1334,-7.1366,-7.1358,-7.135,-7.1363,-7.1374,-7.1382,-7.14,-7.1409,-7.1424,-7.1382,-7.1328,-7.1456,-7.1373,-7.1441,-7.1442,-7.1469,-7.1467,-7.1695,-7.1483,-7.1482,-7.1482,-7.1482,0,-7.1424,-7.1487,-7.1424,-7.1463,-7.1531,-7.1477,-7.1545,-7.153,-7.1523,-7.1557,-7.1493,-7.1527,-7.147,-7.1498,-7.1466,-7.1526,-7.1532,-7.1518,-7.1508,-7.1522,-7.1523,-7.1527,-7.1516,-7.1487,-7.1486,-7.1485,-7.1484,0,-7.1615,-7.1576,-7.1639,-7.1613,-7.1608,-7.1659,-7.1637,-7.1671,-7.1646,-7.169,-7.1698,-7.1658,-7.1688,-7.1648,-7.1674,-7.1652,-7.1734,-7.1711,-7.1735,-7.1727,-7.1796,-7.1789,-7.2033,-7.2061,-7.1833,-7.1836,-7.1837,0,-7.1728,-7.1774,-7.1752,-7.177,-7.1766,-7.1796,-7.1808,-7.1757,-7.1773,-7.1771,-7.1806,-7.183,-7.1846,-7.1897,-7.1871,-7.189,-7.1865,-7.1949,-7.1867,-7.1879,-7.1863,-7.1859,-7.1863,-7.1965,-7.1968,-7.197,-7.1972,0,-7.1932,-7.191,-7.193,-7.1944,-7.1961,-7.197,-7.1974,-7.1992,-7.1938,-7.1959,-7.1988,-7.2,-7.2026,-7.205,-7.2062,-7.2055,-7.2004,-7.1998,-7.2014,-7.2027,-7.2038,-7.203,-7.1777,-7.1992,-7.199,-7.1988,-7.1987,-7.1987,-7.2085,-7.2121,-7.2111,-7.2135,-7.2133,-7.2138,-7.2168,-7.2146,-7.2168,-7.2184,-7.2153,-7.2189,-7.2183,-7.2193,-7.2192,-7.2219,-7.2183,-7.2207,-7.2213,-7.2219,-7.2228,-7.2036,-7.2222,-7.2221,-7.2221,-7.222,-7.222,0,-7.2283,-7.2272,-7.2296,-7.2302,-7.2321,-7.2271,-7.2273,-7.2292,-7.2324,-7.2322,-7.2339,-7.2371,-7.2394,-7.237,-7.2388,-7.2414,-7.2391,-7.2421,-7.2416,-7.2415,-7.2261,-7.2244,-7.2438,-7.2438,-7.2438,-7.2438,-7.2438,-7.2438,-7.2388,-7.2446,-7.2423,-7.2478,-7.2467,-7.25,-7.2505,-7.2509,-7.2506,-7.2545,-7.2563,-7.2546,-7.2535,-7.2552,-7.257,-7.2563,-7.2571,-7.2608,-7.2592,-7.2448,-7.2426,-7.2406,-7.2389,-7.2611,-7.2611,-7.2743,-7.2744,-7.2745]}]]